Location: Mahannah Oil Field
(37.4664°N, 96.6003°W)
Time: 10:14:59
(UTC+00:00)

Transit 2A Rocket - Pass Details

Date: 23 January 2021
Orbit: 594 x 909 km, 66.7° (Epoch: 03 March)

Event Time Altitude Azimuth Distance (km) Brightness Sun altitude
Rises 18:14:15 0° 201° (SSW) 3,404 9.2 33.0°
Reaches altitude 10° 18:16:48 10° 199° (SSW) 2,431 8.7 33.0°
Maximum altitude 18:22:22 73° 116° (ESE) 818 5.9 33.1°
Drops below altitude 10° 18:27:29 10° 32° (NNE) 2,236 7.1 33.2°
Sets 18:29:45 0° 31° (NNE) 3,111 7.7 33.2°
